sat.trackr.live / text

‹ back to catalog

SPIP

NORAD 58298 · 2023-174AU

PAYLOAD ACTIVE UNKNOWN

§ Identity

Operator
Country
BEL
Launch date
2023-11-11
Launch site
AFWTR
Launch vehicle
Mass (kg)
RCS (m²)

External: N2YO · Heavens-Above · Gunter

§ Orbital elements

Epoch: 2026-05-25T05:23:56.988960Z

Period
94.28 min
Inclination
97.3844°
Eccentricity
0.0007639
Mean motion
15.27426135 rev/d
Perigee alt
478.3 km
Apogee alt
488.8 km
Semi-major
6,861.6 km
B*
1.6328e-4
RAAN
221.9577°
Arg perigee
265.2034°
Mean anomaly
94.8333°
Rev number
14,127

§ Raw data

SPIP1 58298U 23174AU  26145.22496515  .00004311  00000+0  16328-3 0  99922 58298  97.3844 221.9577 0007639 265.2034  94.8333 15.27426135141270

JSON: /api/v1/satellites/58298 · /tle

For live sub-satellite position, see the globe view (requires WebGL).

§ Visibility from observer

Set your observer location to see the next 7 days of passes ≥ 10°. The values pass through the URL so the page stays shareable.

No JS? Fill the form by hand. The geolocation button needs JavaScript.